Mazatlan - G. Buelna, Mexico

6:27 AM MST on February 14, 2016 (GMT -0700)
Gen Rafael Buelna International

Weather History for MMMZ - October, 2013

Change the Weather History Date:

Wednesday, October 23, 2013

  Actual Average Record
Temperature  
Mean Temperature 78 °F -  
Max Temperature 93 °F 86 °F 93 °F (1997)
Min Temperature 64 °F 67 °F 60 °F (2010)
Cooling Degree Days 14    
Growing Degree Days 28 (Base 50)    
Moisture  
Dew Point 67 °F    
Average Humidity 71    
Maximum Humidity 88    
Minimum Humidity 38    
Precipitation  
Precipitation 0.00 in - - ()
Sea Level Pressure  
Sea Level Pressure 29.80 in    
Wind  
Wind Speed 6 mph ()    
Max Wind Speed 13 mph    
Max Gust Speed -    
Visibility 11.2 miles    
Events      
Averages and records for this station are not official NWS values.
T = Trace of Precipitation, MM = Missing Value Source: Averaged Metar Reports

Daily Weather History Graph

Daily Weather History Graph

Search for Another Location

Airport or City:

Trip Planner

Search our weather history database for the weather conditions in past years. The results will help you decide how hot, cold, wet, or windy it might be!

Date:

Astronomy

Oct. 23, 2013 Rise Set
Actual Time 7:05 AM MDT 6:32 PM MDT
Civil Twilight 6:42 AM MDT 6:55 PM MDT
Nautical Twilight 6:16 AM MDT 7:21 PM MDT
Astronomical Twilight 5:50 AM MDT 7:48 PM MDT
Moon 10:22 PM MDT (10/23) 11:08 AM MDT (10/23)
Length of Visible Light 12h 12m
Length of Day
11h 26m
Waning Gibbous, 79% of the Moon is Illuminated
Oct 23
Waning Gibbous
Oct 26
Last Quarter
Nov 3
New
Nov 9
First Quarter
Nov 17
Full

Hourly Weather History & Observations

Time (MDT) Temp. Heat Index Dew Point Humidity Pressure Visibility Wind Dir Wind Speed Gust Speed Precip Events Conditions
12:00 AM 77 °F - 68 °F 67% 29.81 in - NW 2.2 mph - -  
12:44 AM 68.0 °F - 62.6 °F 83% 29.79 in 10.0 mi NNE 8.1 mph - N/A   Clear
1:44 AM 66.2 °F - 60.8 °F 83% 29.79 in 10.0 mi NNE 8.1 mph - N/A   Clear
2:50 AM 66.2 °F - 60.8 °F 83% 29.78 in 10.0 mi Calm Calm - N/A   Clear
3:00 AM 74 °F - 66 °F 70% 29.80 in - North 2.2 mph - -  
3:42 AM 66.2 °F - 60.8 °F 83% 29.78 in 10.0 mi North 6.9 mph - N/A   Clear
4:41 AM 64.4 °F - 60.8 °F 88% 29.78 in 10.0 mi NNE 8.1 mph - N/A   Clear
5:46 AM 66.2 °F - 60.8 °F 83% 29.82 in 8.0 mi North 6.9 mph - N/A   Clear
6:00 AM 72 °F - 67 °F 81% 29.81 in - Calm Calm - -  
6:47 AM 66.2 °F - 62.6 °F 88% 29.82 in 10.0 mi North 6.9 mph - N/A   Clear
7:45 AM 68.0 °F - 62.6 °F 83% 29.84 in 10.0 mi North 6.9 mph - N/A   Clear
8:43 AM 71.6 °F - 64.4 °F 78% 29.84 in 10.0 mi NNE 8.1 mph - N/A   Clear
9:00 AM 82 °F - 71 °F 62% 29.85 in - East 6.7 mph - -  
9:40 AM 78.8 °F - 69.8 °F 74% 29.84 in 10.0 mi East 8.1 mph - N/A   Clear
10:48 AM 82.4 °F 86.3 °F 69.8 °F 66% 29.84 in 15.0 mi SE 6.9 mph - N/A   Clear
11:49 AM 86.0 °F 90.4 °F 69.8 °F 58% 29.83 in 12.0 mi SSE 8.1 mph - N/A   Clear
12:00 PM 93 °F - 70 °F 38% 29.83 in - ESE 2.2 mph - -  
12:42 PM 89.6 °F 94.7 °F 69.8 °F 52% 29.79 in 15.0 mi SSW 9.2 mph - N/A   Clear
1:40 PM 89.6 °F 94.7 °F 69.8 °F 52% 29.77 in 15.0 mi SW 10.4 mph - N/A   Clear
2:43 PM 87.8 °F 91.4 °F 68.0 °F 52% 29.76 in 15.0 mi SW 10.4 mph - N/A   Clear
3:00 PM 89 °F - 74 °F 52% 29.78 in - West 8.9 mph - -  
3:44 PM 87.8 °F 91.4 °F 68.0 °F 52% 29.75 in 15.0 mi WSW 10.4 mph - N/A   Clear
4:43 PM 86.0 °F 90.4 °F 69.8 °F 58% 29.75 in 12.0 mi WSW 12.7 mph - N/A   Clear
5:42 PM 86.0 °F 89.4 °F 68.0 °F 55% 29.76 in 12.0 mi West 12.7 mph - N/A   Clear
6:40 PM 80.6 °F 83.9 °F 69.8 °F 70% 29.78 in 10.0 mi WNW 9.2 mph - N/A   Partly Cloudy
7:40 PM 77.0 °F - 69.8 °F 78% 29.78 in 10.0 mi West 9.2 mph - N/A   Partly Cloudy
8:41 PM 75.2 °F - 68.0 °F 78% 29.78 in 10.0 mi NW 6.9 mph - N/A   Clear
9:45 PM 73.4 °F - 68.0 °F 83% 29.81 in 10.0 mi NNW 6.9 mph - N/A   Clear
10:43 PM 71.6 °F - 66.2 °F 83% 29.81 in 10.0 mi North 6.9 mph - N/A   Clear
11:46 PM 69.8 °F - 66.2 °F 88% 29.82 in 10.0 mi Calm Calm - N/A   Clear